Other Public Products
Issued by NWS Grand Forks, ND

Home | Current Version | Previous Version | Graphics & Text | Print | Product List | Glossary On
Versions: 1 2 3 4 5 6 7 8 9 10 11 12 13 14 15 16 17 18 19 20 21 22 23 24 25 26 27 28 29 30 31 32 33 34 35 36 37 38 39 40 41 42 43 44 45 46 47 48 49 50
000
FPUS83 KFGF 290610
OPUFGF
PRAIRIE TO PINES WEATHER ROUNDUP
NATIONAL WEATHER SERVICE EASTERN NORTH DAKOTA/GRAND FORKS ND
1200 AM CST MON DEC 29 2014

 **SATELLITE DATA USED TO AUGMENT SKY COVER AT AUTOMATED STATIONS**
 *****  WEATHER ACROSS EASTERN NORTH DAKOTA  *****

CITY           SKY/WX    TMP DP  RH WIND       PRES   REMARKS
GRAND FORKS    PTCLDY    -7 -12  79 NW8       30.54R WCI -23
6HR MIN TEMP: -11; 6HR MAX TEMP:  -7;

GRAND FORKS AF PTCLDY    -7 -11  81 N8        30.54R WCI -23
GRAND CITY NWS   N/A     -8 N/A N/A N2          N/A
BUXTON         NOT AVBL
DEVILS LAKE    PTCLDY    -8 -17  65 N9        30.48R WCI -25
6HR MIN TEMP: -11; 6HR MAX TEMP:  -6;

FARGO          CLEAR     -4 -11  72 N9        30.52R WCI -20
6HR MIN TEMP:  -4; 6HR MAX TEMP:   0;

WAHPETON ARPT  PTCLDY    -2  -8  78 N12       30.48S WCI -20
$$

 *****  WEATHER ACROSS CENTRAL AND WESTERN NORTH DAKOTA  *****

CITY           SKY/WX    TMP DP  RH WIND       PRES   REMARKS
JAMESTOWN      PTCLDY    -6 -11  79 N6        30.46R WCI -19
6HR MIN TEMP:  -7; 6HR MAX TEMP:   0;

BISMARCK       CLOUDY     1  -5  75 NE7       30.48R WCI -12
6HR MIN TEMP:   1; 6HR MAX TEMP:   6; 6HR PCP: TRACE;

MINOT          PTCLDY    -9 -14  78 NW9       30.50R WCI -26
6HR MIN TEMP:  -9; 6HR MAX TEMP:  -3;

MINOT AFB      PTCLDY   -10 -15  80 N7        30.51R WCI -25
6HR MIN TEMP: -12; 6HR MAX TEMP:  -5;

GARRISON         N/A     -5 -10  79 N5        30.47R WCI -16
6HR MIN TEMP:  -5; 6HR MAX TEMP:   4;

WILLISTON      CLEAR     -6 -12  75 N10       30.51R WCI -24
6HR MIN TEMP:  -6; 6HR MAX TEMP:   7;

DICKINSON      CLOUDY     5   0  79 NE10      30.35R WCI -10
6HR MIN TEMP:   5; 6HR MAX TEMP:  12; 6HR PCP: TRACE;

HETTINGER      LGT SNOW   6   1  80 NE16      30.32R WCI -12
6HR MIN TEMP:   6; 6HR MAX TEMP:  16; 6HR PCP: TRACE;

$$

 *****  OTHER OBSERVATIONS NORTHEAST NORTH DAKOTA  *****

CITY           SKY/WX    TMP DP  RH WIND       PRES   REMARKS
WALHALLA         N/A     -9 -17  70 NW8       30.56R WCI -26
LANGDON        FAIR     -15 -20  76 N8        30.46R WCI -32
CAVALIER       FAIR      -9 -15  77 N13G20    30.55R WCI -30
GRAFTON        NOT AVBL
CANDO          FAIR      -9 -15  77 N7        30.50S WCI -24
FORT TOTTEN      N/A     -7 -13  76 N3        29.95
ROLLA          FAIR     N/A N/A N/A NW9       30.47R
RUGBY          FAIR      -9 -13  84 N3        30.50R
 ***** THE ABOVE OBSERVATIONS ARE NON NWS ARE NOT QUALITY
        CONTROLLED AND MAY MIS-REPORT RAIN FOR SNOW...
$$

 *****  OTHER OBSERVATIONS SOUTHEAST NORTH DAKOTA *****

CITY           SKY/WX    TMP DP  RH WIND       PRES   REMARKS
COOPERSTOWN    NOT AVBL
VALLEY CITY    FAIR      -6  -8  92 N6        30.47R WCI -18
OAKES            N/A      0  -4  85 N13       30.46R WCI -18
GWINNER        CLOUDY     0  -6  78 N13       30.47R WCI -18
SHEYENNE NWR     N/A     -4 -11  72 N7        29.95S WCI -18
BUFFALO        NOT AVBL
WYNDMERE         N/A     -2  -9  71 VRB12       N/A  WCI -20
 ***** THE ABOVE OBSERVATIONS ARE NON NWS ARE NOT QUALITY
       CONTROLLED AND MAY MIS-REPORT RAIN FOR SNOW...
$$

  *****  WEATHER ACROSS NORTHERN MINNESOTA  *****

CITY           SKY/WX    TMP DP  RH WIND       PRES   REMARKS
FLAG ISLAND    PTCLDY   -15 -18  84 NW14      30.44R WCI -38
WARROAD        PTCLDY   -11 -18  70 NW5       30.46R WCI -23
ROSEAU         PTCLDY    -9 -17  70 NW3       30.48R
HALLOCK        PTCLDY    -9 -17  70 N12       30.52R WCI -29
THF RVR FALLS  PTCLDY    -8 -15  71 N8        30.46R WCI -23
6HR MIN TEMP:  -8; 6HR MAX TEMP:  -6;

HALSTAD          N/A     -6 -13  73 N5          N/A  WCI -18
FOSSTON        CLEAR    -11 -17  77 N5        30.45R WCI -23
BAUDETTE       CLEAR    -11 -17  75 NW12      30.42R WCI -31
6HR MIN TEMP: -11; 6HR MAX TEMP:  -3;

WASKISH        CLEAR     -8 -11  84 NW7       30.42R WCI -22
CROOKSTON      PTCLDY    -9 -15  77 NW7       30.53R WCI -24
$$
  *****  WEATHER ACROSS CENTRAL AND WEST MINNESOTA  *****

CITY           SKY/WX    TMP DP  RH WIND       PRES   REMARKS
BEMIDJI        CLEAR     -9 -13  82 NW3       30.40R
PARK RAPIDS    CLEAR     -4  -9  79 N6        30.39R WCI -16
6HR MIN TEMP:  -4; 6HR MAX TEMP:   6;

WADENA         CLEAR      0  -6  78 N6        30.39R WCI -12
DETROIT LAKES  CLEAR     -4  -8  84 N12       30.43R WCI -22
MOORHEAD       PTCLDY    -4  -8  84 N12       30.51R WCI -22
FERGUS FALLS   PTCLDY     0  -8  71 N5        30.48R WCI -10
ELBOW LAKE     FAIR       4  -3  75 N10       30.42R WCI -12
6HR MIN TEMP:   4; 6HR MAX TEMP:  10;

MORRIS MN      CLOUDY     7   1  78 N10       30.41R WCI  -8
STAPLES        PTCLDY     0  -6  78 N5        30.39R WCI -10
WHEATON        FAIR      -2  -6  84 N10       30.47S WCI -19
$$
  *****  WEATHER ELSEWHERE ACROSS MINNESOTA  *****

CITY           SKY/WX    TMP DP  RH WIND       PRES   REMARKS
DULUTH         CLEAR      0  -9  65 NW10      30.30R WCI -16
6HR MIN TEMP:   0; 6HR MAX TEMP:   5;

INTRNTL FALLS  CLEAR    -10 -16  74 NW7       30.39R WCI -25
6HR MIN TEMP: -10; 6HR MAX TEMP:  -4;

ELY            CLEAR     -8 -13  77 CALM      30.32R
CLOQUET        CLEAR      0  -8  71 NW6       30.33R WCI -12
BRAINERD       CLEAR      2  -5  72 N6        30.39R WCI  -9
6HR MIN TEMP:   2; 6HR MAX TEMP:   8;

HIBBING        CLEAR     -4 -11  72 N10       30.34R WCI -21
6HR MIN TEMP:  -4; 6HR MAX TEMP:   1;

ALEXANDRIA     PTCLDY     6  -2  69 N9        30.38R WCI  -8
6HR MIN TEMP:   6; 6HR MAX TEMP:  13;

SAINT CLOUD    MOCLDY    10  -1  61 N6        30.39R WCI   0
6HR MIN TEMP:  10; 6HR MAX TEMP:  16;

MINNEAPOLIS    CLOUDY    10  -2  58 N9        30.39R WCI  -3
6HR MIN TEMP:  10; 6HR MAX TEMP:  18;

$$

  *****  WEATHER ACROSS SOUTH DAKOTA  *****

CITY           SKY/WX    TMP DP  RH WIND       PRES   REMARKS
SIOUX FALLS    LGT SNOW  13   9  84 NE13      30.31R FOG     WCI  -2
6HR MIN TEMP:  13; 6HR MAX TEMP:  20; 6HR PCP:  0.02;

BROOKINGS      NOT AVBL
WATERTOWN      CLOUDY     4  -1  80 N10       30.34R WCI -11
6HR MIN TEMP:   4; 6HR MAX TEMP:   8;

HURON          LGT SNOW  10   6  84 NE12      30.36R FOG     WCI  -5
6HR MIN TEMP:  10; 6HR MAX TEMP:  17; 6HR PCP:  0.01;

SISSETON         N/A      1  -5  75 N16       30.45R WCI -19
ABERDEEN       CLOUDY     4  -3  73 NE15      30.44R WCI -14
6HR MIN TEMP:   4; 6HR MAX TEMP:   7;

MITCHELL       LGT SNOW  16  13  88 NE14      30.34R FOG     WCI   2
PIERRE         MIX PCPN   7   2  80 NE16      30.32R WCI -11
6HR MIN TEMP:   7; 6HR MAX TEMP:  19; 6HR PCP: TRACE;

MOBRIDGE       CLOUDY     8   1  73 NE13      30.36R WCI  -8
RAPID CITY     LGT SNOW  15  11  83 NE10      30.19R FOG     WCI   2
6HR MIN TEMP:  15; 6HR MAX TEMP:  18; 6HR PCP:  0.08;

$$

  *****  SOME WEATHER IN NEARBY STATES *****

CITY           SKY/WX    TMP DP  RH WIND       PRES   REMARKS
GLASGOW MT     CLOUDY     6  -4  63 NE12      30.50R WCI  -9
6HR MIN TEMP:   6; 6HR MAX TEMP:  12;

GREAT FALLS MT LGT SNOW   6   3  87 N14       30.38R FOG     WCI -11
6HR MIN TEMP:   6; 6HR MAX TEMP:  11; 6HR PCP:  0.02;

CHEYENNE WY    CLEAR     12   6  77 NW3       29.93R
6HR MIN TEMP:  12; 6HR MAX TEMP:  25;

SCOTTSBLUFF NE MOCLDY    12   9  87 N7        30.00R WCI   1
6HR MIN TEMP:  12; 6HR MAX TEMP:  20;

OMAHA NE       MOCLDY    24  22  91 N8        30.23R WCI  15
6HR MIN TEMP:  23; 6HR MAX TEMP:  28;

DES MOINES IA  MOCLDY    29  22  75 NE7       30.23S WCI  22
6HR MIN TEMP:  28; 6HR MAX TEMP:  32;

DAVENPORT IA   MOCLDY    25  19  78 N3        30.26R
6HR MIN TEMP:  22; 6HR MAX TEMP:  29;

CHICAGO IL     PTCLDY    25  19  78 NW5       30.24S WCI  19
6HR MIN TEMP:  23; 6HR MAX TEMP:  30;

EAU CLAIRE WI  MOCLDY     3  -2  79 CALM      30.35R
6HR MIN TEMP:  -1; 6HR MAX TEMP:  12;

LA CROSSE WI   MOCLDY    18  14  84 N7        30.34R WCI   9
6HR MIN TEMP:  15; 6HR MAX TEMP:  24;

$$

  *****  SOME NATIONAL WEATHER *****

CITY           SKY/WX    TMP DP  RH WIND       PRES   REMARKS



USA.gov is the U.S. government's official web portal to all federal, state and local government web resources and services.